ATLAS 5 CENTAUR DEB, 43975

Orbit data source: Space-Track

ATLAS 5 CENTAUR DEB, 43975 is space debris in HEO originally from a launch on Wed, 17 Sep 2014 UTC launched from the Air Force Eastern Test Range (AFETR). Debris objects in space refer to the collection of defunct objects orbiting the Earth. Examples of debris include non-operational satellites, rocket bodies, and fragments generated from explosions, collisions, or faulty payload assembly.

Loading next visibility...
Identifier
43975, 2014-055AE
Orbit
HEO
Country
Flag of USUS
Related business
Flag of USUnited Launch Alliance/Lockheed Martin (US)
Manufacturer
Unknown
Mission
Spacecraft
Bus & Motor
Unknown
Mass
Unknown
Launch date (UTC)
2014-09-17 (11 years ago)
Launch vehicle
Unknown
Launch site
Air Force Eastern Test Range (AFETR)
Object type
Payload
Rocket body
Debris
Shape & HBR
Unknown
Radar Cross Section
Small (<0.1 m²)

Expand to show TLE details & history
Last TLE update: 1 month ago

TLE from 1 month ago
0 ATLAS 5 CENTAUR DEB
1 43975U 14055AE  25202.63347742 -.00000249  00000-0  00000-0 0  9996
2 43975  20.6844 131.6855 5011750 187.4512 160.7195  1.93211063 48591
Epoch: 2025-07-21T15:12Z
TLE epoch observation values (Epoch: 2025-07-21T15:12:12.449Z)
Latitude
0.00004°
Longitude
-36.03497°
Altitude
34,177.753 km
Speed
2.24 km/s
True Right ascension
08h 46m 37s
True Declination
0° 00' 00"
Sunlit
Object was in daylight at epoch
Visualization orbit readout
Latitude
Unknown
Longitude
Unknown
Altitude
Unknown
Speed
Unknown
Apparent Right ascension
Unknown
Apparent Declination
Unknown
Sunlit
N/A
Visualization observer readout
Local Sidereal Time
15:41:22
Azimuth
Unknown
Elevation
Unknown
Doppler factor
Unknown
Orbital elements
Apogee altitude
34,501.886 km
Perigee altitude
7,205.874 km
Semi-major axis
27,232.017 km
Eccentricity
0.50118
Inclination
20.6844°
RAAN
131.6855°
Arg. of periapsis
187.4512°
True anomaly
172.55461°
Mean anomaly
160.7195°
Eccentric anomaly
167.12027°
Mean motion
0.48297 °/min
Orbital period
745.38 mins
BSTAR
0
Loading maneuver chart data...
Computing Atmospheric mass density...
Loading historical data...
Loading historical data...
Loading historical data...
Loading historical data...
Loading historical data...
Loading historical data...
Loading historical data...

Documentation

Showing up to 5 results
|